Weather Roundup
Issued by NWS Chicago, IL

Home | Current Version | Previous Version | Text Only | Print | Product List | Glossary Off
Versions: 1 2 3 4 5 6 7 8 9 10 11 12 13 14 15 16 17 18 19 20 21 22 23 24 25 26 27 28 29 30 31 32 33 34 35 36 37 38 39 40 41 42 43 44 45 46 47 48 49 50

000
NZUS59 KLOT 161912
HRRLOT

CHICAGO AREA WEATHER ROUNDUP
NATIONAL WEATHER SERVICE CHICAGO/ROMEOVILLE IL
100 PM CST MON JAN 16 2017

NOTE: "FAIR" INDICATES FEW OR NO CLOUDS BELOW 12,000 FEET WITH NO
SIGNIFICANT WEATHER AND/OR OBSTRUCTIONS TO VISIBILITY.

* THESE STATIONS ARE NOT UNDER NWS QUALITY CONTROL. THEY ALSO MAY NOT
  REPORT WEATHER SUCH AS PRECIPITATION OR FOG.

ILZ005-006-012>014-019>023-162000-
NORTHEAST ILLINOIS

CITY           SKY/WX    TMP DP  RH WIND       PRES   REMARKS
OHARE          LGT RAIN  35  34  96 E8        30.12F FOG     WCI  29
MIDWAY         LGT RAIN  36  34  92 E7        30.13F FOG
AURORA         LGT RAIN  36  34  92 E7        30.11F VSB 1
LANSING*       LGT RAIN  35  35 100 SE6       30.14F VSB 1   WCI  30
JOLIET*        RAIN      36  36  99 E6        30.11F
WAUKEGAN       LGT RAIN  35  34  96 E7        30.13F VSB 3/4 WCI  29
DUPAGE AIRPORT RAIN      35  32  88 E7        30.11F FOG     WCI  29
WHEELING       LGT RAIN  35  33  92 E6        30.14F FOG     WCI  30
KANKAKEE*      FOG       36  36  99 E8        30.11F VSB 1/2
MORRIS*        RAIN      34  33  96 E8        30.09F VSB 3/4 WCI  27
LEWIS AIRPORT* RAIN      35  35 100 E8        30.11F VSB 1   WCI  28
NORTHERLY ISL    N/A     32  31  96 E5          N/A  WCI  27
$$

WIZ051-052-058>065-066-070>072-162000-
SOUTHEAST WISCONSIN

CITY           SKY/WX    TMP DP  RH WIND       PRES   REMARKS
MILWAUKEE      LGT RAIN  35  32  88 E6        30.15F FOG     WCI  30
KENOSHA*       LGT RAIN  34  32  92 E8        30.14F FOG     WCI  27
RACINE*        LGT RAIN  34  30  85 E7        30.17F WCI  28
WAUKESHA       CLOUDY    30  30 100 E6        30.16F FOG     WCI  24
WEST BEND      LGT RAIN  34  32  93 E6        30.15F WCI  29
$$

INZ001>003-010>013-019-020-162000-
NORTHWEST INDIANA

CITY           SKY/WX    TMP DP  RH WIND       PRES   REMARKS
GARY*          LGT RAIN  37  36  93 SE6       30.15F VSB 1
MICHIGAN CITY* NOT AVBL
RENSSELAER*    NOT AVBL
VALPARAISO     FOG       36  36 100 E6        30.14F VSB 1/4
$$

LMZ740>746-162000-
SOUTHERN LAKE MICHIGAN

STATION/POSITION TIME  SKY/WX   TEMP WIND        PRES    VSBY
                                AIR  DIR/SP/G
                 (UTC)          (F)  (DEG/KT/KT) (MB)    (MI)
HARRISON CRIB    1830            34  110/ 10/ 10   N/A
BURNHAM HARBOR   1845            32  100/  4/  6   N/A
CALUMET HARBOR   1830            33  100/  4/  4 1020.5F
BURNS HARBOR     1805            36  140/  4/ 11 1022.4
MICHIGAN CITY    1830            35   90/  6/  7   N/A
$$

ABBREVIATIONS USED IN REMARKS
   TC - TEMPERATURE IN CELSIUS
  WCI - WIND CHILL INDEX
   HX - HEAT INDEX
  VSB - VISIBILITY
$$



USA.gov is the U.S. government's official web portal to all federal, state and local government web resources and services.